Hourly Data Report for August 11, 2022

TRENTON A
ONTARIO
Current Station Operator: DND

44°07'08.000" N
77°31'41.000" W
86.30 m
6158875
71621
YTR

Download Data

Hourly Data (August 2022)
Hourly Data Report for August 11, 2022
TIME
LST
Temp Definition
°C
Dew Point Definition
°C
Rel Hum Definition
%
Precip. Amount Definition
mm

Wind Dir Definition
10's deg

Wind Spd Definition
km/h
Visibility Definition
km
Stn Press Definition
kPa
Hmdx Definition


Wind Chill Definition


Weather Definition


00:00 16.1 14.0 87   3 4 24.1 100.46     LegendNANA
01:00 16.1 14.4 90   3 4 24.1 100.40     LegendNANA
02:00 15.4 14.2 93   10 4 24.1 100.36     LegendNANA
03:00 15.3 14.1 93   4 5 24.1 100.30     LegendNANA
04:00 16.2 14.7 91   32 4 24.1 100.26     LegendNANA
05:00 18.4 16.2 87   28 5 24.1 100.26     LegendNANA
06:00 19.0 16.2 84   31 9 24.1 100.29     LegendNANA
07:00 19.3 15.6 79   33 13 24.1 100.30     LegendNANA
08:00 21.3 16.6 75   34 15 24.1 100.32 26   LegendNANA
09:00 22.2 16.9 72   34 13 24.1 100.34 27   LegendNANA
10:00 24.7 16.9 62   35 11 24.1 100.35 30   LegendNANA
11:00 26.1 15.3 51   34 18 24.1 100.37 30   LegendNANA
12:00 26.1 12.8 44   31 22 24.1 100.35 29   LegendNANA
13:00 27.7 9.7 32   35 21 24.1 100.35 29   LegendNANA
14:00 26.8 10.6 36   35 18 24.1 100.36 28   LegendNANA
15:00 26.7 9.6 34   34 18 24.1 100.36 28   LegendNANA
16:00 25.6 9.5 36   32 13 24.1 100.37 27   LegendNANA
17:00 26.4 9.1 34   33 17 24.1 100.39 27   LegendNANA
18:00 25.1 8.7 35   35 17 24.1 100.43 26   LegendNANA
19:00 22.6 8.4 40   36 13 24.1 100.51     LegendNANA
20:00 19.8 7.9 46   36 11 24.1 100.59     LegendNANA
21:00 18.8 7.2 47   1 15 24.1 100.67     LegendNANA
22:00 17.6 7.0 50   1 13 24.1 100.73     LegendNANA
23:00 15.1 7.6 61   36 8 24.1 100.79     LegendNANA

Notes on Data Quality.

Legend

  • E = Estimated
  • M = Missing
  • NA = Not Available*
  • [empty] = Indicates an unobserved value
Date modified: